Location: Buffenhofen
(47.9847°N, 9.1625°E)
Time: 02:42:57
(UTC+00:00)

Daily predictions for brighter satellites

Satellite Brightness Start Highest point End
(mag) Time Altitude Azimuth Time Altitude Azimuth Time Altitude Azimuth
ADEOS II 4.4 00:01:50 10° ENE 00:04:02 13° E 00:06:15 10° ESE
Cosmos 1553 Rocket 4.2 00:03:21 34° SW 00:06:02 62° WNW 00:12:12 10° N
NOSS 2-2 (D) 4.2 00:01:30 10° NW 00:06:31 82° SW 00:11:37 19° SE
Cosmos 1461 3.6 00:02:52 10° NW 00:06:31 38° WSW 00:06:31 38° WSW
Cosmos 1867 3.6 00:05:01 33° SW 00:07:33 76° NW 00:13:03 10° NE
Cosmos 1674 Rocket 3.6 00:06:55 50° SW 00:07:54 69° W 00:12:14 10° N
Cosmos 2221 Rocket 4.1 00:06:47 38° WSW 00:07:55 48° WNW 00:12:13 10° N
Cosmos 2298 Rocket 4.0 00:07:41 42° S 00:09:31 77° ESE 00:14:51 10° NNE
Cosmos 1674 3.5 00:10:51 34° W 00:11:23 36° WNW 00:14:54 10° N
USA 306 3.1 00:11:52 48° SSE 00:11:59 48° SE 00:16:01 10° ENE
Cosmos 1238 Rocket 3.5 00:09:58 10° NNW 00:12:06 29° WNW 00:12:06 29° WNW
Thor Agena Rocket 4.1 00:08:16 10° NNE 00:13:23 48° E 00:15:34 31° SSE
ATLAS CENTAUR R/B 3.4 00:11:14 10° WNW 00:13:59 18° WSW 00:13:59 18° WSW
USA 307 3.2 00:15:20 45° SE 00:15:26 45° SE 00:19:27 10° ENE
SL-16 R/B 3.8 00:16:08 17° SE 00:18:45 23° ESE 00:23:07 10° NE
ERBS 3.5 00:22:52 29° E 00:22:52 29° E 00:24:51 10° ENE
Cosmos 1980 3.7 00:20:38 37° S 00:22:54 73° ESE 00:28:34 10° NNE
ATLAS 5 CENTAUR R/B 3.0 00:11:33 10° NW 00:23:08 53° WSW 00:24:40 38° S
Cosmos 1378 Rocket 4.0 00:22:19 39° SW 00:23:32 51° WNW 00:27:52 10° N
CZ-4C R/B 3.3 00:16:45 10° NW 00:23:46 48° WSW 00:27:53 28° S
Cosmos 2333 Rocket 3.6 00:19:42 14° WSW 00:23:54 32° NW 00:28:58 10° NNE
Cosmos 1455 Rocket 3.7 00:19:34 10° N 00:23:58 51° ENE 00:26:10 26° SE
USA 215 4.0 00:19:41 10° NE 00:26:00 52° NNW 00:32:18 10° W
Cosmos 332 Rocket 4.1 00:28:23 36° SSE 00:30:02 56° ESE 00:34:44 10° NNE
NOSS 0 Rocket 3.9 00:29:23 31° SW 00:32:32 82° WNW 00:38:50 10° NNE
USA 32 4.0 00:35:15 36° SSW 00:37:27 79° W 00:42:44 10° N
Meteor 1-24 Rocket 4.5 00:34:53 22° SSE 00:38:06 44° E 00:43:16 10° NNE
Meteor 2-10 Rocket 3.6 00:32:41 10° NNW 00:38:25 86° W 00:41:17 30° S
Cosmos 1975 Rocket 3.3 00:39:39 35° SSE 00:41:20 65° E 00:45:48 10° NNE
ADEOS Rocket 4.5 00:42:18 15° WSW 00:44:03 18° W 00:47:53 10° NW
Cosmos 839 Rocket 4.3 00:37:49 10° NW 00:44:04 58° WSW 00:49:12 20° S
USA 308 2.8 00:44:46 44° SW 00:45:58 71° SSE 00:50:10 10° ENE
Cosmos 2219 Rocket 3.7 00:42:56 12° WSW 00:47:14 28° NW 00:52:01 10° NNE
MOS 1 Rocket 4.5 00:44:05 10° SE 00:47:56 35° ENE 00:51:52 10° N
Cosmos 1025 Rocket 3.3 00:47:03 33° SSE 00:48:49 62° E 00:53:06 10° NNE
Cosmos 1455 3.6 00:46:38 10° N 00:50:03 33° ENE 00:52:38 15° SE
Cosmos 1269 Rocket 4.1 00:45:34 10° NNW 00:50:52 78° ENE 00:55:07 16° SSE
GP-B 3.3 00:52:07 10° N 00:56:29 57° W 00:58:07 35° SW
Meteor 2-5 Rocket 3.8 00:55:38 26° S 00:58:56 75° E 01:04:37 10° NNE
CZ-2D R/B 2.4 00:54:01 10° NNE 00:59:22 63° ESE 01:02:28 25° S
Lacrosse 5 2.5 00:58:31 30° S 01:00:29 43° SE 01:05:19 10° ENE
Cosmos 1300 3.5 00:57:24 10° NNW 01:00:52 34° W 01:01:27 32° WSW
USA 267 4.2 01:02:15 23° SW 01:02:54 24° SW 01:08:01 10° WNW
Cosmos 371 Rocket 4.2 01:06:03 22° WSW 01:08:36 39° WNW 01:13:10 10° N
USA 305 2.9 01:07:09 25° WSW 01:09:27 75° NNW 01:13:39 10° ENE
Cosmos 1544 Rocket 3.6 01:05:54 10° N 01:10:21 79° E 01:13:10 22° SSE
USA 229 4.5 01:04:21 10° NW 01:11:02 37° WSW 01:15:15 22° SSW
BREEZE-M DEB (TANK) 4.3 00:57:08 10° WSW 01:12:42 89° SSE 01:16:49 10° ENE
Cosmos 2237 Rocket 2.7 01:11:28 23° SW 01:14:55 53° WNW 01:20:33 10° NNE
COSMOS 2428 4.4 01:12:26 10° W 01:17:03 25° NW 01:21:41 10° N
AQUA 4.2 01:13:59 10° NNE 01:18:43 60° E 01:21:49 21° S
Cosmos 304 Rocket 4.4 01:17:17 24° WSW 01:19:51 47° WNW 01:24:32 10° NNE
SL-16 R/B 2.5 01:14:42 14° SSE 01:20:08 82° WSW 01:26:25 10° NNW
Helios 1A 3.8 01:17:09 10° SSE 01:21:13 52° ENE 01:25:20 10° N
SAR-Lupe-2 4.0 01:18:46 10° NNE 01:22:20 57° ESE 01:24:09 26° S
Lacrosse 5 rocket 2.1 01:21:54 27° S 01:23:18 36° SE 01:27:02 10° ENE
Cosmos 1953 4.4 01:23:57 10° NW 01:25:47 13° W 01:26:26 12° W
SME Rocket 3.9 01:24:35 27° SW 01:26:02 35° W 01:30:37 10° NNW
Cosmos 2074 Rocket 4.0 01:22:15 10° N 01:28:34 80° W 01:33:59 15° S
Resurs 1-4 Rocket 2.1 01:23:17 10° NNE 01:28:34 74° WNW 01:31:56 23° SSW
Cosmos 1943 Rocket 2.2 01:27:51 10° NNW 01:33:30 65° WSW 01:39:05 10° SSE
Cosmos 2297 3.7 01:27:43 10° NNW 01:33:30 81° WSW 01:39:13 10° SSE
Cosmos 1703 4.2 01:35:52 14° SSE 01:39:00 44° E 01:42:46 10° NNE
CRYOSAT 2 4.3 01:38:47 17° S 01:42:34 77° W 01:47:29 10° N
Cosmos 2184 Rocket 4.0 01:37:13 10° NNW 01:43:25 65° W 01:48:45 14° S
Cosmos 2278 Rocket 3.8 01:40:37 10° WNW 01:43:59 16° W 01:45:23 15° WSW
ADEOS II 2.1 01:39:14 10° NNE 01:44:31 84° ESE 01:48:40 17° SSW
IDEFIX/ARIANE 42P 2.7 01:40:08 10° NNE 01:45:26 73° ESE 01:49:52 15° S
Cosmos 1610 Rocket 4.5 01:41:04 10° N 01:47:16 89° W 01:53:24 10° S
USA 306 3.6 01:47:34 10° W 01:51:36 50° NNW 01:55:40 10° ENE
Cosmos 2084 Rocket 3.7 01:49:15 19° WSW 01:51:46 51° NW 01:55:30 10° NE
Cosmos 292 Rocket 4.0 01:48:10 17° S 01:51:51 67° ESE 01:56:38 10° NNE
USA 307 3.5 01:51:04 11° W 01:55:03 52° NNW 01:59:10 10° ENE
NPP 4.0 01:51:16 10° N 01:56:31 54° WNW 02:00:35 17° SW
ERBS 3.5 01:54:54 12° W 01:57:22 32° NNW 02:00:12 10° NE
Cosmos 2369 Rocket 2.3 01:53:10 10° NNW 01:58:49 83° ENE 02:04:24 10° SSE
Cosmos 2228 3.0 01:57:56 10° N 02:02:20 88° ENE 02:06:40 10° S
Cosmos 614 Rocket 4.0 01:57:14 10° NNW 02:02:21 60° WSW 02:07:29 10° S
SL-16 R/B 2.4 01:58:00 17° SW 02:02:22 63° WNW 02:08:02 10° NNE
IRS-1D 4.0 01:57:06 10° NNE 02:02:25 63° ESE 02:07:38 10° S
EO 1 Del DPAF 3.0 01:59:12 10° N 02:02:43 75° WNW 02:05:16 17° SSW
Cosmos 2251 Rocket 3.5 01:59:07 10° NNW 02:04:25 90° ENE 02:09:42 10° SSE
Meteor 1-28 Rocket 3.5 02:03:37 16° SSW 02:06:23 44° W 02:09:59 10° NNW
Cosmos 1656 Rocket 3.7 02:02:45 10° NNW 02:08:13 79° ENE 02:13:38 10° SSE
COSMOS 2455 2.9 02:04:48 15° SSW 02:09:54 84° ESE 02:15:59 10° NE
Cosmos 1536 Rocket 3.9 02:08:02 16° SSW 02:11:25 52° WNW 02:15:43 10° N
COSMOS 2441 4.4 02:12:51 10° NNE 02:17:45 86° ESE 02:22:36 10° SSW
Nadezhda 1 Rocket 4.3 02:15:05 12° SSW 02:20:54 58° WNW 02:27:07 10° N
MSX 3.9 02:16:41 10° NNE 02:22:28 77° WNW 02:28:14 10° SSW
Cosmos 1455 3.8 02:22:38 10° NW 02:25:17 19° W 02:27:22 13° SW
USA 308 4.0 02:21:49 10° W 02:25:49 42° NNW 02:29:50 10° ENE
Cosmos 1603 4.3 02:20:27 10° S 02:25:54 54° ESE 02:31:26 10° NE
MOS 1 Rocket 4.3 02:23:23 13° SW 02:26:17 24° W 02:29:49 10° NW
Cosmos 1271 Rocket 3.6 02:25:54 10° NNW 02:29:18 31° W 02:32:43 10° SSW
Cosmos 1606 Rocket 3.6 02:29:06 10° NNW 02:33:30 66° W 02:37:50 10° S
ALOS 3.4 02:32:21 10° NNE 02:36:48 43° E 02:41:14 10° S
CZ-2D R/B 3.7 02:34:50 10° N 02:38:58 23° WNW 02:43:02 10° WSW
CZ-2C R/B 3.5 02:34:01 10° NNE 02:38:59 46° E 02:43:46 10° S
Lacrosse 5 2.5 02:38:26 10° WSW 02:43:26 53° NNW 02:48:26 10° NE
Helios 1B rocket 2.5 02:39:36 10° NNE 02:43:42 80° ESE 02:47:44 10° SSW
Cosmos 2366 rocket 4.0 02:39:33 10° N 02:45:45 88° W 02:51:56 10° S
Cosmos 2341 Rocket 4.1 02:39:56 10° NNW 02:46:14 63° W 02:52:31 10° S
USA 305 4.3 02:45:34 10° WNW 02:49:28 36° N 02:53:22 10° ENE
Meteor 2-1 Rocket 4.4 02:45:12 10° NNW 02:50:50 55° W 02:56:19 10° S
BREEZE-M DEB (TANK) 3.1 02:47:49 10° SW 02:51:54 37° SSE 02:54:04 10° E
Cosmos 407 Rocket 3.6 02:47:03 10° NNW 02:52:19 64° WSW 02:57:31 10° S
SL-8 Rocket 4.1 02:46:43 10° NNW 02:53:00 67° W 02:59:14 10° S
Cosmos 1371 Rocket 4.4 02:50:55 10° S 02:56:01 65° ESE 03:01:10 10° NNE
Cosmos 1943 3.3 02:51:38 10° SSW 02:57:21 82° WNW 03:03:04 10° NNE
